Skip Page Navigation
NASA JPL Caltech
NASA Logo - Jet Propulsion Laboratory + View the NASA Portal
+ Center for Near-Earth Object Studies
JPL Home Earth Solar System Stars & Galaxies Technology
JPL Solar System Dynamics
BODIES ORBITS EPHEMERIDES TOOLS PHYSICAL DATA DISCOVERY FAQ SITE MAP
IMPORTANT: The SSD Announcement email list is now available. Major changes are coming in the near future, including possible hostname and/or URL changes. To be notified of such changes, subscribe to this email list.

Please visit this page for more details.


JPL Small-Body Database Browser
Search: [ help ]  
351653 (2005 YL151)
Classification: Main-belt Asteroid          SPK-ID: 2351653
Ephemeris | Orbit Diagram | Orbital Elements | Mission Design | Physical Parameters | Discovery Circumstances ]

[ show orbit diagram ]
Orbital Elements at Epoch 2458600.5 (2019-Apr-27.0) TDB
Reference: JPL 18 (heliocentric ecliptic J2000)
 Element Value Uncertainty (1-sigma)   Units 
e .1706823818464034 6.0982e-08  
a 2.385211482917736 2.0804e-08 au
q 1.978097905805945 1.38e-07 au
i 5.758815552280248 6.4411e-06 deg
node 86.5204385916139 5.3553e-05 deg
peri 186.4452117813488 5.6832e-05 deg
M 74.67318527598192 1.7048e-05 deg
tp 2458321.405717035363
(2018-Jul-21.90571704)
6.4515e-05 TDB
period 1345.515682717047
3.68
1.7604e-05
4.82e-08
d
yr
n .267555409887932 3.5005e-09 deg/d
Q 2.792325060029528 2.4355e-08 au
  Orbit Determination Parameters
   # obs. used (total)      204  
   data-arc span      6582 days (18.02 yr)  
   first obs. used      2001-11-16  
   last obs. used      2019-11-24  
   planetary ephem.      DE431  
   SB-pert. ephem.      SB431-N16  
   condition code      0  
   norm. resid. RMS      .61469  
   source      ORB  
   producer      Otto Matic  
   solution date      2019-Dec-04 23:11:08  

Additional Information
 Earth MOID = .961466 au 
 Jupiter MOID = 2.31161 au 
 T_jup = 3.509 
[ hide covariance matrix ]
Orbital Elements at Epoch 2457558.5 (2016-Jun-19.0) TDB
Reference: JPL 18 (heliocentric ecliptic J2000)
 Element Value Uncertainty (1-sigma)   Units 
e .1710114652083086 6.0687e-08  
q 1.977131676742646 1.3732e-07 au
tp 2456976.686296746127
(2014-Nov-15.18629675)
7.1083e-05 TDB
node 86.53956921788888 5.358e-05 deg
peri 186.6195726058784 5.6874e-05 deg
i 5.757761985899867 6.4394e-06 deg
  Orbit Determination Parameters
   # obs. used (total)      204  
   data-arc span      6582 days (18.02 yr)  
   first obs. used      2001-11-16  
   last obs. used      2019-11-24  
   planetary ephem.      DE431  
   SB-pert. ephem.      SB431-N16  
   condition code      0  
   norm. resid. RMS      .61469  
   source      ORB  
   producer      Otto Matic  
   solution date      2019-Dec-04 23:11:08  

Additional Information
 Jupiter MOID = 2.31161 au 
 T_jup = 3.509 
Orbit Covariance (6×6)
  e q tp node peri i
e 3.682852429582692E-15 -8.282464291277735E-15 -2.561855722834154E-12 4.082338969180246E-14 -6.70289244450383E-13 -1.165960737090252E-15
q -8.282464291277735E-15 1.885660535413407E-14 5.526872362968529E-12 -9.548618125144852E-14 1.473982961426405E-12 2.735310100127401E-15
tp -2.561855722834154E-12 5.526872362968529E-12 5.052736442193901E-9 -4.451651020088773E-11 1.376675205928013E-9 3.267646023271943E-12
node 4.082338969180246E-14 -9.548618125144852E-14 -4.451651020088773E-11 2.870776032768486E-9 -2.867508590014823E-9 -1.47074693683229E-10
peri -6.70289244450383E-13 1.473982961426405E-12 1.376675205928013E-9 -2.867508590014823E-9 3.234654802308317E-9 1.471804100821741E-10
i -1.165960737090252E-15 2.735310100127401E-15 3.267646023271943E-12 -1.47074693683229E-10 1.471804100821741E-10 4.146639318136743E-11

Ephemeris | Orbit Diagram | Orbital Elements | Mission Design | Physical Parameters | Discovery Circumstances ]

Physical Parameter Table
Parameter Symbol Value Units Sigma Reference Notes
absolute magnitude H 16.7   n/a MPO455545  

351653 (2005 YL151)          Discovered 2005-Dec-25 by Spacewatch at Kitt Peak
Reference: 20130127/Numbers.arcLast Updated: 2013-01-31
Ephemeris | Orbit Diagram | Orbital Elements | Mission Design | Physical Parameters | Discovery Circumstances ]
ABOUT SSD CREDITS/AWARDS PRIVACY/COPYRIGHT GLOSSARY LINKS
FirstGov 2019-Dec-14 08:36 UT
(server date/time)  
NASA Home Page
Site Manager:   Ryan S. Park
Webmaster  Alan B. Chamberlin